[TLELIST] Archives

 

[TLELIST] Current TLEs

August 14th 2024 PDT

HST 1 20580U 90037B 24226.57606336 .00016655 00000-0 77191-3 0 9997 2 20580 28.4698 320.4006 0001789 313.2931 46.7513 15.18648161686025 ISS (ZARYA) 1 25544U 98067A 24227.37312917 .00035101 00000-0 61749-3 0 9990 2 25544 51.6414 27.0714 0005352 196.6516 234.9351 15.50116667467577 CXO 1 25867U 99040B 24228.68753001 .00000906 00000-0 00000+0 0 9992 2 25867 42.3795 148.8371 8827115 299.8144 0.7629 0.37804528 25942 ...Continue Reading

[TLELIST] Current TLEs

August 13th 2024 PDT

HST 1 20580U 90037B 24225.65602021 .00023092 00000-0 10739-2 0 9999 2 20580 28.4696 326.5721 0001735 301.1506 58.8917 15.18616974685623 ISS (ZARYA) 1 25544U 98067A 24226.02378591 .00025887 00000-0 45990-3 0 9991 2 25544 51.6416 33.7569 0005523 192.0981 264.8145 15.50000549467368 CXO 1 25867U 99040B 24228.68753001 .00000906 00000-0 00000+0 0 9992 2 25867 42.3795 148.8371 8827115 299.8144 0.7629 0.37804528 25942 ...Continue Reading

[TLELIST] Current TLEs

August 13th 2024 PDT

HST 1 20580U 90037B 24225.65602021 .00023092 00000-0 10739-2 0 9999 2 20580 28.4696 326.5721 0001735 301.1506 58.8917 15.18616974685623 ISS (ZARYA) 1 25544U 98067A 24226.02378591 .00025887 00000-0 45990-3 0 9991 2 25544 51.6416 33.7569 0005523 192.0981 264.8145 15.50000549467368 CXO 1 25867U 99040B 24228.68753001 .00000906 00000-0 00000+0 0 9992 2 25867 42.3795 148.8371 8827115 299.8144 0.7629 0.37804528 25942 ...Continue Reading

[TLELIST] Current TLEs

August 12th 2024 PDT

HST 1 20580U 90037B 24224.73595425 .00015982 00000-0 74197-3 0 9994 2 20580 28.4698 332.7457 0001727 288.9299 71.1107 15.18576051685486 ISS (ZARYA) 1 25544U 98067A 24225.49668471 .00023534 00000-0 41949-3 0 9997 2 25544 51.6416 36.3701 0005647 189.7423 203.9955 15.49962670467280 CXO 1 25867U 99040B 24226.04479016 .00000804 00000-0 00000-0 0 9999 2 25867 42.3363 149.0122 8829759 299.7112 0.9080 0.37809300 14775 ...Continue Reading

[TLELIST] Current TLEs

August 11th 2024 PDT

HST 1 20580U 90037B 24223.75014641 .00012792 00000-0 59283-3 0 9996 2 20580 28.4697 339.3587 0001755 274.4020 85.6372 15.18544710685330 ISS (ZARYA) 1 25544U 98067A 24224.34162951 .00021255 00000-0 38061-3 0 9991 2 25544 51.6411 42.0922 0005759 185.7150 238.8068 15.49898511467106 CXO 1 25867U 99040B 24226.04479016 .00000804 00000-0 00000-0 0 9999 2 25867 42.3363 149.0122 8829759 299.7112 0.9080 0.37809300 14775 ...Continue Reading

[TLELIST] Current TLEs

August 11th 2024 PDT

HST 1 20580U 90037B 24223.75014641 .00012792 00000-0 59283-3 0 9996 2 20580 28.4697 339.3587 0001755 274.4020 85.6372 15.18544710685330 ISS (ZARYA) 1 25544U 98067A 24224.34162951 .00021255 00000-0 38061-3 0 9991 2 25544 51.6411 42.0922 0005759 185.7150 238.8068 15.49898511467106 CXO 1 25867U 99040B 24226.04479016 .00000804 00000-0 00000-0 0 9999 2 25867 42.3363 149.0122 8829759 299.7112 0.9080 0.37809300 14775 ...Continue Reading

[TLELIST] Current TLEs

August 10th 2024 PDT

HST 1 20580U 90037B 24222.76432068 .00011418 00000-0 52866-3 0 9997 2 20580 28.4695 345.9708 0001775 261.3424 98.6968 15.18518051685188 ISS (ZARYA) 1 25544U 98067A 24223.29546296 .00018961 00000-0 34112-3 0 9995 2 25544 51.6406 47.2736 0006013 181.7353 161.7641 15.49843702466938 CXO 1 25867U 99040B 24226.04365229 .00000804 00000-0 00000+0 0 9998 2 25867 42.3363 149.0122 8829752 299.7113 0.7527 0.37809554 25934 ...Continue Reading

[TLELIST] Current TLEs

August 10th 2024 PDT

HST 1 20580U 90037B 24222.76432068 .00011418 00000-0 52866-3 0 9997 2 20580 28.4695 345.9708 0001775 261.3424 98.6968 15.18518051685188 ISS (ZARYA) 1 25544U 98067A 24223.29546296 .00018961 00000-0 34112-3 0 9995 2 25544 51.6406 47.2736 0006013 181.7353 161.7641 15.49843702466938 CXO 1 25867U 99040B 24226.04365229 .00000804 00000-0 00000+0 0 9998 2 25867 42.3363 149.0122 8829752 299.7113 0.7527 0.37809554 25934 ...Continue Reading

[TLELIST] Current TLEs

August 9th 2024 PDT

HST 1 20580U 90037B 24221.77847841 .00011361 00000-0 52629-3 0 9990 2 20580 28.4695 352.5831 0001791 249.2544 110.7857 15.18496760685034 ISS (ZARYA) 1 25544U 98067A 24222.03339765 .00017959 00000-0 32418-3 0 9990 2 25544 51.6399 53.5258 0005829 176.5439 320.7860 15.49790766466749 CXO 1 25867U 99040B 24223.39936605 .00000718 00000-0 00000-0 0 9990 2 25867 42.3113 149.1512 8833948 299.6350 0.7198 0.37811338 14761 ...Continue Reading

[TLELIST] Current TLEs

August 8th 2024 PDT

HST 1 20580U 90037B 24220.79262190 .00009306 00000-0 42978-3 0 9991 2 20580 28.4698 359.1961 0001829 235.0923 124.9498 15.18474887684886 ISS (ZARYA) 1 25544U 98067A 24221.06706303 .00017895 00000-0 32346-3 0 9997 2 25544 51.6392 58.3140 0005861 173.2146 329.1956 15.49755186466599 CXO 1 25867U 99040B 24223.39936605 .00000718 00000-0 00000-0 0 9990 2 25867 42.3113 149.1512 8833948 299.6350 0.7198 0.37811338 14761 ...Continue Reading
  • This mailing list is a public mailing list - anyone may join or leave, at any time.
  • This mailing list is announce-only.

International Space Station (ISS) / Hubble Space Telescope (HST) / Chandra X-Ray Observatory Orbital Data via EMAIL

Privacy Policy:

Private list